Showing default

SGDC, 42692

Orbit data source: Space-Track

SGDC, 42692 is a payload satellite owned by Telebras (BR) in GEO that was launched on Thu, 04 May 2017 UTC via an ARIANE 5ECA launch vehicle from the French Guiana (FRGUI). Payloads include a variety of satellites, spacecraft, and rockets equipped with specific instruments for various scientific and technological missions. These include communications satellites like Starlink; space stations such as the ISS; scientific satellites like the Hubble; Earth observation satellites from companies like Planet Labs, Umbra, and HawkEye 360; GPS; miniature CubeSats for education and research; and military/defense satellites.

Loading next visibility...
SGDC details
Identifier
42692, 2017-023B
Orbit
GEO
Last TLE update14 hours ago
Origin
Flag of BRTelebras (BR / BRAZ)
ManufacturerThales Alenia
MissionOperational Defense Communications
Bus & MotorSPACEBUS 4000C4, S400
Mass5,735 kg wet, ~2,500 kg dry
Launch date (UTC)
2017-05-04 (8 years ago)
Launch vehicle
ARIANE 5ECA
Launch site
French Guiana (FRGUI)
Object type
Payload
Rocket body
Debris
Shape & HBRBox + 2 Pan, 37 m
Radar Cross Section34.994 m², Large (>1 m²)

Expand to show TLE details & history

TLE from 14 hours ago
0 SGDC
1 42692U 17023B   24360.94413487 -.00000221  00000-0  00000-0 0  9997
2 42692   0.0194  54.3949 0002995 237.2648  68.3156  1.00271863 28018
Epoch: 2024-12-25T22:39Z
Definitive object data (Epoch: 2024-12-25T22:39:33.252Z)
Latitude-0.01536°
Longitude-74.81909°
Altitude35,781.424 km
Speed3.075 km/s
True Right ascension00h 00m 00s
True Declination0° 00' 55"
Sunlit
Object was in daylight at TLE epoch
Visualization TLE readout
Latitude0.00233°
Longitude131.79689°
Altitude35,784.977 km
Speed3.075 km/s
Apparent Right ascension14h 01m 20s
Apparent Declination-6° 06' 37"
Sunlit
Object is in daylight
Visualization observer readout
Local Sidereal Time11:45:32
Azimuth137.726° SSE
Elevation34.353°
Doppler factor1
Orbital elements
Apogee altitude35,800.272 km
Perigee altitude35,775.015 km
Semi-major axis42,165.78 km
Eccentricity0.0002995
Inclination0.0194°
RAAN54.3949°
Arg. of periapsis237.2648°
True anomaly68.3475°
Mean anomaly68.3156°
Eccentric anomaly68.33155°
Mean motion0.25067 °/min
BSTARUnknown
Orbital period1436.15 mins
Loading historical data...
42692 neighbors
Authenticating...
Loading maneuver chart data...
Loading historical data...
Loading historical data...
Loading historical data...
Loading historical data...
Loading historical data...
Loading historical data...
Loading historical data...
Other satellites on launch #23 in the year 2017 (2017-05-04 UTC)

SGDC Visibility forecast

Observer location: undefined°, undefined

Span
Click to sort rows by Start time (UTC) header in descending order
Start Az.
Max El. time (UTC)
Max El. Az.
Max El.
End time (UTC)
End Az.
1440 mins2024-12-26 12:24:01.649Z137.739° SSE2024-12-27 08:42:01.649Z137.707° SSE29.443°2024-12-27 12:24:01.649Z137.74° SSE
|